Flag Weather past 2 weeks in Hampton, Virginia, U.S.A.

Now
56 °F

Broken clouds.


Feels Like: 55 °F
Forecast: 40 / 58 °F
Wind: 6 mph from Northeast

Location: Langley Air Force Base

Current Time: Nov 23, 2014 at 2:10:29 PM

Latest Report: Nov 23, 2014 at 12:58 PM


Visibility: 10 mi

Pressure: 30.20 "Hg

Humidity: 64%

Dew point: 44 °F

Location of HamptonLocation

Historic Weather in Hampton — Graph

°F

Hampton temperature yesterday

Maximum temperature yesterday: 50 °F (at 2:58 PM)
Minimum temperature yesterday: 25 °F (at 2:58 AM)
Average temperature yesterday: 37 °F

Past Weeks' High & Low Weather Summary

 TemperatureHumidityPressure
High72 °F (Nov 17, 2:58 PM)100% (Nov 9, 7:58 PM)30.60 "Hg (Nov 9, 7:58 PM)
Low23 °F (Nov 19, 6:58 AM)28% (Nov 22, 1:58 PM)29.56 "Hg (Nov 17, 5:03 PM)
Average45 °F68%30.15 "Hg
* Reported Nov 8 12:58 PM — Nov 23 12:58 PM, Hampton, Weather by CustomWeather, © 2014

Note: Actual official high and low records may vary slightly from our data, if they occured in-between our weather recording intervals... More about our weather records

Advertising

Hampton weather history for previous 24 hours

 ConditionsComfort  
Time TempWeatherWind HumidityBarometerVisibility
12:58 PM
Nov 23
56 °FBroken clouds.6 mph64%30.20 "Hg10 mi
11:58 AM54 °FPartly sunny.3 mph67%30.24 "Hg10 mi
10:58 AM53 °FScattered clouds.No wind68%30.28 "Hg10 mi
9:58 AM48 °FPassing clouds.3 mph72%30.29 "Hg10 mi
8:58 AM44 °FSunny.5 mph84%30.28 "Hg10 mi
7:58 AM39 °FSunny.5 mph99%30.31 "Hg10 mi
6:58 AM39 °FPassing clouds.5 mph78%30.32 "Hg10 mi
5:58 AM35 °FClear.6 mph97%30.32 "Hg10 mi
4:58 AM35 °FClear.3 mph92%30.32 "Hg10 mi
3:58 AM34 °FClear.5 mph85%30.32 "Hg10 mi
2:58 AM33 °FClear.2 mph90%30.34 "Hg10 mi
1:58 AM33 °FClear.5 mph86%30.34 "Hg10 mi
12:58 AM33 °FClear.6 mph83%30.34 "Hg10 mi
11:58 PM
Nov 22
38 °FClear.5 mph65%30.35 "Hg10 mi
10:58 PM39 °FClear.5 mph62%30.38 "Hg10 mi
9:58 PM40 °FClear.6 mph56%30.39 "Hg10 mi
8:58 PM41 °FClear.5 mph54%30.38 "Hg10 mi
7:58 PM39 °FClear.7 mph63%30.38 "Hg10 mi
6:58 PM36 °FClear.6 mph70%30.39 "Hg10 mi
5:58 PM39 °FClear.3 mph53%30.41 "Hg10 mi
4:58 PM44 °FClear.6 mph40%30.42 "Hg10 mi
3:58 PM50 °FSunny.10 mph31%30.43 "Hg10 mi
2:58 PM50 °FSunny.14 mph28%30.44 "Hg10 mi
Weather by CustomWeather, © 2014

See weather overviewHow to use our weather pages